RH
65 67 70 70 68 68 68 68 66 64 61 58 54 50 49 51 55 60 60 57 55 51 44 39 37 39 42 45 50 53 56 59 61 66 75 88 99 104 105 102 100 101 101 101 100 99 101 100 102 104 104 102 101 102 104 103 100 100 101 101 100 100 101 101 101 101 101 100 100 102 102 100 99 96 93 90 87 84 84 85 89 91 93 93 89
64 62 65 68 69 68 67 68 70 70 69 67 65 60 54 49 48 52 59 61 61 60 57 49 42 38 38 41 44 46 49 53 57 60 61 66 76 88 100 103 102 104 102 100 102 101 100 100 101 102 102 101 103 105 104 101 100 102 102 99 99 102 101 100 102 102 101 100 101 102 102 100 100 101 101 101 100 98 95 91 87 87 90 95 97
67 63 62 62 64 65 65 66 67 69 70 70 70 69 65 61 56 50 51 57 60 62 63 59 54 48 42 38 38 39 42 47 52 57 58 58 60 67 78 89 96 103 105 102 102 102 102 103 102 100 100 100 102 104 103 101 102 102 102 100 101 103 101 100 102 101 101 102 100 101 101 100 101 103 102 102 103 103 103 102 99 98 97 97 98
67 67 65 62 60 60 60 61 62 63 66 68 70 71 71 71 71 64 57 56 56 58 60 61 61 60 55 47 40 37 38 42 46 50 54 58 60 60 63 68 74 84 94 99 100 100 100 102 102 101 100 100 100 101 100 100 102 101 100 101 102 102 100 101 102 101 101 101 100 101 101 100 101 102 101 102 104 102 102 103 103 104 104 103 102
67 65 65 64 62 60 58 57 57 58 60 62 65 69 71 73 76 75 70 66 61 58 58 57 58 61 64 61 54 47 42 40 42 45 49 52 56 59 61 62 60 60 69 79 87 93 96 99 101 101 100 100 100 101 101 101 101 100 100 100 100 100 100 101 102 101 100 100 102 102 100 101 103 102 101 102 101 101 103 104 103 103 103 102 100
75 70 66 63 62 61 59 57 56 56 55 56 58 61 66 69 74 76 75 73 69 65 62 59 57 57 60 63 63 61 56 50 46 44 45 46 48 51 55 58 59 57 60 62 66 73 80 86 94 98 101 102 102 101 101 101 102 101 101 101 100 100 101 101 101 101 100 100 102 103 101 102 102 100 101 99 98 99 100 101 100 100 100 99 98
77 76 74 70 67 63 60 57 54 52 50 48 48 49 53 59 66 71 74 75 74 73 70 67 62 59 60 61 61 63 65 66 62 55 47 44 45 46 48 52 55 57 61 63 61 62 64 67 72 80 88 93 97 99 100 100 102 102 102 101 100 100 101 101 101 101 101 100 100 101 100 101 101 100 101 98 98 98 98 99 99 99 98 98 99
70 72 74 74 72 67 61 55 49 45 41 38 36 36 38 44 51 60 67 72 76 77 76 73 69 65 63 62 62 61 63 68 72 69 60 52 48 45 45 47 50 51 55 59 61 62 64 63 61 62 67 71 77 82 87 92 96 98 99 98 97 99 100 100 100 101 102 100 101 101 100 101 101 100 101 100 100 100 99 100 100 101 100 100 102
61 61 62 62 62 60 56 51 45 39 35 31 30 29 29 31 35 42 51 61 69 75 78 78 75 71 68 65 64 64 63 64 67 70 68 65 61 55 49 46 45 46 49 51 53 55 58 61 62 61 62 62 63 64 67 71 75 79 84 87 89 93 95 95 96 99 100 98 99 100 100 102 101 100 101 101 101 102 103 103 102 102 101 101 101
54 50 48 47 45 44 43 42 42 40 38 34 31 29 28 29 30 32 37 44 53 62 71 77 78 77 76 73 71 70 68 66 66 66 65 66 68 67 64 57 49 46 47 46 47 48 49 51 53 56 58 59 60 61 61 61 62 64 65 67 70 73 77 80 83 87 90 91 93 94 95 96 97 97 99 100 100 100 100 100 99 99 99 99 98
50 43 38 36 34 31 30 31 34 38 41 42 39 34 30 30 32 32 34 37 40 46 53 62 71 77 80 81 80 78 75 72 70 69 65 64 66 69 71 71 64 58 54 51 47 46 46 45 46 47 48 50 52 54 56 58 59 60 60 60 60 60 61 63 64 67 70 72 75 79 81 84 85 87 88 90 91 91 91 91 91 91 92 92 91
50 44 38 33 29 25 23 23 25 30 35 41 44 43 38 33 32 33 34 35 37 40 42 46 53 63 72 79 82 83 82 80 77 75 71 66 65 67 69 72 72 71 69 64 59 55 52 49 45 44 44 44 45 45 46 48 50 51 53 54 55 56 57 58 58 60 60 61 62 63 65 66 68 70 71 73 75 75 76 76 77 79 78 77 77
55 50 44 38 32 27 23 22 24 26 29 33 38 43 45 41 37 34 33 34 36 38 40 40 41 45 53 63 73 79 83 84 84 83 80 73 68 67 67 69 70 73 75 75 73 69 65 60 53 49 46 45 45 44 44 43 43 43 43 44 45 46 48 49 51 53 55 56 57 58 59 60 60 61 62 63 63 64 64 65 66 67 66 65 65
56 53 49 45 40 34 30 27 27 28 29 30 32 36 41 44 43 39 36 34 34 35 37 39 40 40 41 45 54 65 76 82 85 86 86 83 77 72 70 70 70 71 73 76 78 77 75 73 69 64 59 54 50 49 48 46 46 46 44 43 42 42 41 41 42 44 45 46 48 49 51 52 53 54 56 56 57 58 58 58 60 60 60 59 59
53 51 49 47 45 42 37 34 31 30 30 31 31 33 35 40 43 44 43 40 36 33 33 34 37 39 40 40 42 47 58 70 80 84 86 87 85 80 76 74 74 74 75 77 79 79 77 76 76 77 75 70 64 60 56 53 50 49 49 48 46 45 44 43 42 41 42 42 42 42 43 44 44 45 45 45 46 47 47 48 48 49 50 50 49
48 47 46 44 43 42 40 39 36 35 34 33 33 33 34 36 38 42 45 47 45 41 36 33 33 34 35 38 39 40 44 52 63 74 82 86 87 86 83 79 77 76 76 78 81 81 79 77 76 77 78 78 76 73 70 67 62 55 53 53 52 49 47 47 46 45 45 45 45 44 44 45 45 44 44 43 43 44 44 43 43 45 46 46 45
42 41 41 40 38 37 37 37 37 37 37 36 36 36 36 36 37 39 42 44 47 48 46 42 38 36 34 34 35 36 38 40 46 55 65 75 81 83 84 83 82 80 79 78 80 81 81 78 77 76 75 75 75 76 76 76 75 70 65 65 65 62 57 54 52 51 51 52 52 51 50 52 52 51 50 49 48 49 49 48 47 48 51 51 49
38 38 38 38 37 37 36 35 35 35 35 35 36 37 38 39 39 40 41 43 45 47 50 50 47 43 39 37 35 34 34 36 37 41 47 56 67 74 78 81 81 82 82 83 82 82 82 80 79 78 77 74 71 71 71 72 74 75 75 77 79 80 79 74 69 65 63 62 61 59 57 57 59 59 58 57 56 56 56 56 54 54 57 57 56
35 36 37 37 37 37 38 37 35 33 33 33 33 35 37 39 40 40 41 42 44 44 46 50 52 51 47 42 38 36 34 34 34 36 38 42 49 58 67 74 77 77 79 81 84 85 85 84 82 80 80 79 75 72 69 67 67 69 72 75 78 82 86 87 85 82 78 75 74 73 70 68 66 67 66 65 64 64 63 62 61 60 62 62 61
30 32 34 35 35 35 37 37 35 33 32 31 32 32 33 35 37 39 41 42 43 44 43 44 47 50 52 49 44 39 35 34 33 33 34 35 38 42 50 59 67 73 75 76 79 83 86 88 88 86 83 80 78 77 75 71 67 65 67 70 72 74 78 84 88 88 87 85 84 85 85 83 80 78 77 77 75 73 72 72 71 69 70 70 67
24 26 28 29 30 30 32 33 33 32 32 31 32 32 32 32 32 34 37 39 41 42 43 42 42 44 47 49 49 45 40 36 34 32 32 32 33 35 38 43 51 61 68 72 75 78 82 87 91 94 92 88 82 80 80 77 72 67 67 70 73 73 72 75 81 85 86 86 86 87 89 90 88 85 85 85 84 82 81 81 80 79 79 79 77
21 23 24 25 26 27 28 30 30 29 28 28 29 29 30 30 30 30 31 33 35 37 38 39 41 42 43 44 45 47 45 40 36 33 31 31 30 31 32 34 38 44 52 60 67 73 77 82 87 91 93 94 92 88 87 84 79 73 71 73 76 76 73 72 74 78 81 85 87 87 87 87 87 85 84 83 83 82 81 81 80 81 82 84 84
17 18 19 22 24 25 25 27 28 26 25 25 25 26 27 27 28 28 28 29 30 33 35 35 35 37 40 42 42 42 43 43 41 38 34 31 30 30 30 30 32 34 37 43 50 59 66 73 81 86 87 89 89 88 88 88 85 82 79 78 78 79 78 75 75 76 78 81 85 87 89 90 88 84 82 80 79 78 77 77 76 76 78 81 83
11 12 13 15 17 18 20 21 23 24 24 24 24 24 24 25 25 25 25 25 26 28 31 33 34 33 34 37 40 40 40 40 41 42 40 37 33 31 30 29 29 30 31 33 36 41 48 56 67 76 83 86 85 83 82 81 81 80 81 82 81 81 81 80 79 79 79 79 79 81 86 92 93 90 86 83 81 80 79 78 77 77 78 80 81
9 9 10 10 11 12 13 14 16 18 19 20 21 22 23 23 24 24 24 24 24 25 27 29 32 33 32 33 36 40 41 39 37 38 41 43 41 37 34 31 30 29 29 30 31 32 35 40 46 55 65 74 79 81 81 80 78 76 76 79 81 81 82 82 81 80 80 80 80 82 85 89 93 92 88 86 85 85 85 84 84 82 83 85 85
7 7 7 7 8 8 9 10 10 11 12 13 14 16 18 20 21 23 23 24 24 25 26 27 29 30 32 31 32 35 40 42 40 37 35 38 41 42 41 38 34 32 30 30 30 30 31 32 34 37 43 49 58 65 71 75 77 75 73 74 78 80 80 80 80 81 82 82 82 85 88 91 94 95 94 91 89 89 89 90 90 89 89 90 90
5 5 5 5 6 6 6 7 7 8 8 9 9 11 12 14 17 19 20 22 23 24 25 26 28 29 31 31 30 30 32 36 41 41 38 34 34 37 40 41 40 38 35 33 31 30 30 31 32 32 33 35 38 43 50 57 62 64 65 66 70 74 75 73 73 78 85 88 87 86 86 87 89 93 97 97 95 95 96 96 97 97 94 94 94
4 4 4 4 4 4 5 5 5 6 6 6 7 8 9 10 12 14 16 17 18 20 22 24 25 27 28 30 31 31 29 29 32 37 40 38 34 32 33 37 39 40 39 38 35 33 32 31 32 32 33 34 33 34 36 39 43 46 48 51 55 60 64 65 65 67 75 85 90 91 90 87 85 87 93 96 96 96 98 99 99 99 98 97 97
4 4 4 4 4 4 4 4 4 4 5 5 6 6 7 8 9 10 11 12 13 15 17 20 22 23 25 27 29 31 32 30 28 29 33 37 38 35 31 31 33 35 37 38 37 36 35 33 33 32 33 34 35 35 34 34 35 35 36 37 39 42 46 49 52 54 60 71 81 87 90 92 91 90 93 96 96 95 95 97 96 96 96 95 95
4 4 3 3 4 4 4 4 4 4 4 4 5 5 6 6 7 8 8 9 10 11 12 15 17 18 21 23 25 28 31 32 31 28 28 30 34 36 34 31 29 29 31 34 35 36 36 35 34 33 33 34 35 36 37 37 36 35 35 34 33 33 34 35 36 39 44 52 61 69 76 82 87 89 90 93 96 96 97 101 102 99 94 91 88
4 4 4 4 3 3 4 3 3 3 4 4 4 4 5 5 6 6 7 8 9 9 10 11 12 14 15 17 20 23 27 30 32 31 28 27 27 30 32 32 30 27 26 27 30 32 34 34 34 33 33 34 35 36 38 38 38 38 37 36 35 34 34 33 32 33 34 38 43 49 54 61 67 72 76 79 83 87 90 96 100 98 93 87 81
4 4 4 4 3 3 4 4 3 3 3 4 4 4 4 5 5 5 5 6 7 8 9 10 11 11 11 13 14 17 20 23 26 29 29 27 25 24 25 26 27 26 25 24 24 26 29 31 33 33 33 32 33 35 37 38 38 39 38 38 38 37 37 36 35 35 35 36 38 39 41 44 48 53 58 62 65 67 70 75 78 78 76 70 63
4 4 4 4 4 4 4 4 4 4 4 4 4 4 4 4 4 4 4 5 6 7 8 9 10 10 10 10 11 12 13 15 18 22 24 25 24 22 20 20 19 20 20 20 21 21 22 25 28 31 33 33 33 34 34 35 36 38 38 38 38 38 38 39 38 38 39 39 39 40 39 39 41 43 47 50 53 55 57 59 60 59 58 54 49
4 4 4 4 3 4 4 5 5 5 5 5 5 4 4 3 3 4 4 4 4 5 6 7 8 9 9 9 9 10 10 11 12 15 17 19 20 19 18 17 16 15 15 15 16 16 17 19 21 24 28 32 35 35 35 34 34 35 36 37 37 38 39 40 40 40 41 41 42 42 42 42 42 43 45 47 49 52 53 54 54 52 51 49 46
4 3 3 3 3 3 4 4 5 5 5 6 6 5 4 4 4 4 4 4 4 4 5 6 7 7 8 8 8 9 9 10 11 12 13 15 16 16 16 15 14 14 13 12 12 12 13 14 15 17 20 24 30 34 35 36 36 36 36 36 35 36 37 39 41 41 42 42 43 43 44 44 44 45 46 48 49 51 53 53 52 51 49 47 46
3 3 3 4 3 3 3 3 4 4 5 5 6 6 5 5 5 5 4 4 4 4 4 5 5 6 6 6 7 7 8 9 10 11 12 13 14 14 14 14 14 14 13 13 12 11 11 12 12 12 14 16 20 24 28 32 35 37 38 38 37 37 38 39 40 41 42 42 43 43 44 44 45 46 46 47 49 50 52 52 52 51 49 48 47
3 3 3 3 3 3 3 3 3 4 4 5 5 5 5 5 5 5 5 5 5 5 5 5 5 5 5 5 6 6 7 7 8 9 10 10 12 13 13 13 14 14 14 14 14 13 12 12 11 11 11 12 14 16 18 21 25 28 32 34 36 38 40 42 42 42 43 44 44 45 45 45 45 46 46 47 48 49 50 51 51 51 50 50 50
3 3 3 3 3 3 3 3 3 4 4 4 5 4 5 5 5 5 5 5 5 5 5 5 5 5 5 5 5 6 6 6 7 7 8 8 9 10 11 12 12 13 14 14 14 15 14 13 13 12 11 11 12 13 13 14 16 18 20 23 27 30 35 39 41 42 43 45 47 47 48 49 49 49 50 50 50 50 50 51 51 51 51 51 51
3 3 3 3 3 3 3 3 3 3 4 4 4 5 5 4 4 4 4 4 5 5 6 6 6 6 6 6 6 6 6 7 7 7 8 8 8 8 9 9 10 11 12 12 13 14 14 14 14 14 13 13 13 13 13 13 13 14 14 15 18 21 25 29 33 36 39 41 44 46 47 49 51 53 54 55 55 55 56 55 55 55 54 54 54
4 4 3 3 3 3 3 3 3 3 4 4 4 4 4 4 4 4 4 4 4 5 5 5 6 6 7 6 7 7 7 7 7 7 8 8 8 8 8 9 9 10 10 11 11 12 13 14 14 15 15 14 14 14 14 13 13 13 12 12 14 16 19 22 25 29 31 33 35 38 41 44 46 49 51 52 54 56 58 60 60 60 61 61 61
4 4 3 4 4 3 3 3 3 3 3 4 4 4 4 4 4 4 4 4 4 4 4 5 5 6 6 7 7 8 8 8 8 8 8 8 8 8 8 8 9 9 10 10 11 11 12 13 14 15 15 15 15 15 15 15 15 14 12 11 13 15 16 19 21 24 26 28 30 32 34 37 40 42 44 45 47 49 53 55 57 59 61 63 63
3 3 3 3 3 3 3 3 3 4 4 4 4 4 4 4 4 4 4 4 4 5 4 5 5 5 5 6 7 8 8 8 9 9 8 8 8 8 9 9 9 9 10 10 11 11 12 13 13 14 14 15 15 16 16 17 16 15 14 12 13 14 15 17 19 21 23 26 27 28 30 32 35 37 38 40 41 43 45 47 49 51 53 55 57
3 3 3 3 3 3 3 3 3 4 4 4 4 4 4 4 4 4 4 4 4 5 5 5 5 5 5 5 6 6 7 8 8 9 9 9 9 9 9 9 9 9 10 10 10 11 12 12 13 13 14 14 15 15 16 16 16 16 14 14 14 14 15 16 18 20 22 23 24 25 27 28 29 31 32 34 35 36 39 41 42 43 44 45 47
4 4 3 3 3 3 3 3 3 4 4 4 4 4 4 4 4 4 4 4 5 5 5 5 5 5 5 5 5 6 6 7 7 8 9 9 9 10 10 10 10 10 10 10 11 11 12 12 13 13 14 14 14 15 15 15 15 15 14 14 15 15 15 16 16 17 19 21 21 22 23 23 23 24 25 27 28 29 31 34 34 34 34 35 37
4 4 4 3 4 3 3 4 4 4 4 4 4 4 4 4 4 4 5 5 5 5 5 5 5 5 5 5 6 6 6 6 6 7 7 8 9 9 10 10 11 11 11 11 11 11 12 12 12 13 14 14 14 15 15 15 15 15 15 15 16 17 17 17 18 18 19 20 20 20 20 20 20 21 21 22 23 24 26 28 29 29 28 29 30
4 4 4 4 4 4 4 4 4 4 4 4 4 4 4 4 4 5 4 5 5 5 5 5 5 5 6 6 6 6 6 6 6 6 6 6 7 7 8 8 9 10 10 10 11 11 12 12 12 13 13 13 14 14 15 15 15 15 15 16 16 17 18 19 20 20 21 22 22 21 20 21 21 21 21 21 21 22 23 25 26 26 25 26 27
4 4 4 4 4 4 4 4 4 4 4 4 4 4 4 4 5 5 4 5 5 5 5 5 5 5 5 6 6 6 6 7 7 7 7 6 6 6 6 6 7 7 7 8 8 8 9 9 9 10 10 10 10 10 11 11 11 11 11 11 12 12 13 14 15 16 16 17 17 16 16 16 17 17 17 18 18 19 20 21 23 23 23 24 25
5 5 5 4 4 4 4 4 4 5 4 4 5 4 5 5 5 5 5 5 5 5 5 5 5 5 5 6 6 6 6 7 7 7 7 7 7 7 7 7 7 7 7 7 7 7 7 7 7 7 7 7 7 7 7 7 7 7 7 7 8 8 8 9 9 9 9 9 10 10 10 10 10 11 11 11 12 13 14 14 15 16 17 17 17
5 5 5 5 5 4 4 4 4 5 4 5 5 5 5 5 5 5 5 5 6 6 6 5 5 5 5 5 5 6 6 6 7 7 7 7 7 7 7 7 7 7 7 7 7 7 7 7 7 6 6 6 6 6 6 6 6 6 6 7 7 7 8 8 8 8 8 8 8 8 8 8 8 8 8 9 9 9 10 10 10 11 11 12 12
5 5 5 5 5 5 5 5 5 5 5 5 5 5 5 5 5 5 5 6 6 6 7 7 6 6 6 6 6 6 6 6 6 6 6 6 6 6 7 7 7 7 7 6 7 7 6 6 6 6 6 6 6 6 6 6 7 7 7 7 8 8 8 8 8 8 8 8 8 9 8 8 8 8 8 9 9 10 10 10 10 11 11 11 12
6 6 5 5 5 5 5 5 5 5 5 5 5 5 5 5 5 6 6 6 6 7 7 7 7 7 7 7 7 7 7 7 6 6 6 6 6 6 6 6 6 6 6 6 6 6 6 6 6 6 6 7 7 7 7 7 7 7 8 8 8 8 8 9 9 9 9 9 9 9 9 9 9 9 9 9 9 10 10 10 10 10 11 11 12
Wind_Speed
64 63 63 63 61 61 60 61 62 64 65 65 66 66 67 68 68 70 73 74 75 77 79 83 86 89 92 95 97 99 100 101 102 104 106 109 110 111 111 110 110 110 110 110 109 109 110 111 112 115 116 117 118 119 118 118 117 116 115 115 114 114 113 112 112 113 113 113 113 113 114 114 113 113 113 113 113 113 114 114 114 114 114 114 114
68 67 66 66 65 64 63 63 64 65 66 66 67 68 69 69 70 70 72 74 75 77 79 81 82 85 88 92 96 99 100 100 100 102 104 107 110 111 112 113 113 113 113 113 113 113 112 112 113 115 117 118 119 121 121 121 120 120 119 118 118 117 116 116 116 116 117 117 117 116 116 116 115 116 116 117 117 117 117 117 117 117 117 117 117
72 71 70 70 69 68 67 66 66 67 67 67 68 69 70 71 72 72 73 75 76 77 80 81 81 82 85 88 92 95 96 98 100 102 104 105 107 109 112 115 116 116 117 117 117 117 117 117 117 117 118 118 119 120 121 121 122 122 122 121 121 121 120 119 119 120 120 120 119 119 119 118 118 118 118 119 119 120 119 119 119 119 119 119 119
76 75 75 74 73 72 71 69 69 69 69 69 69 70 71 72 74 75 75 76 78 78 80 81 81 82 84 86 87 89 92 95 98 101 103 104 106 107 109 113 116 118 119 120 120 120 120 120 120 120 120 119 119 120 120 121 122 123 123 123 123 123 122 122 123 123 123 122 121 121 121 120 120 120 121 121 122 122 121 121 121 121 121 121 120
82 80 79 78 78 76 75 73 72 72 72 72 72 72 72 73 75 76 77 77 79 80 81 81 82 83 84 85 85 86 88 91 94 97 101 104 106 108 109 112 114 116 116 118 120 122 122 122 122 122 122 121 121 121 121 121 122 122 123 123 124 124 124 124 125 125 124 124 123 123 122 122 121 122 123 124 124 123 123 123 123 123 122 122 122
87 86 84 82 81 81 80 79 77 76 76 75 75 75 75 75 76 78 78 79 79 81 82 83 84 84 84 85 86 86 86 88 90 94 98 101 103 106 108 110 112 112 112 115 117 120 121 123 123 124 124 124 124 124 124 124 124 124 124 124 125 125 125 125 125 126 126 125 125 125 125 125 125 126 126 126 126 125 125 125 124 124 124 124 124
88 88 88 87 86 85 84 84 82 81 80 79 79 78 78 78 79 79 80 80 81 82 83 84 86 86 86 86 87 88 87 87 89 92 95 97 100 102 104 107 109 110 110 112 114 116 118 120 122 123 125 126 127 127 127 127 127 128 128 127 127 126 126 125 125 126 127 126 126 126 127 127 127 127 128 128 127 127 126 126 126 126 126 126 127
86 87 88 89 90 89 89 88 86 85 84 83 81 80 80 81 81 82 82 83 83 83 84 85 87 88 88 88 88 88 88 88 89 91 93 94 96 98 100 102 105 106 108 110 112 113 115 117 118 120 122 124 127 128 129 130 130 131 131 130 130 129 129 128 128 128 128 127 127 128 128 128 128 128 128 128 127 127 127 126 127 127 127 127 127
85 86 87 88 89 89 89 89 88 87 86 85 83 82 82 82 82 83 84 85 85 86 87 88 88 88 89 89 90 90 90 90 91 92 93 93 93 95 97 100 102 103 104 107 109 111 113 114 116 117 118 120 122 124 126 128 130 131 132 132 132 132 132 131 131 131 131 130 130 130 130 130 130 129 129 129 129 129 128 128 128 128 128 128 128
86 86 86 86 86 87 87 87 87 86 86 85 84 84 83 84 84 84 85 87 88 89 89 90 90 90 90 90 91 91 91 92 92 93 93 94 94 94 95 97 99 100 102 104 106 108 110 111 113 114 116 117 119 120 122 123 125 127 129 131 132 133 133 133 133 133 133 133 132 132 132 132 132 132 132 132 132 131 131 131 131 131 131 131 131
86 85 85 85 85 85 85 85 85 85 85 85 85 84 84 85 85 86 86 88 89 91 92 92 93 93 93 93 93 92 93 93 94 94 95 95 95 95 95 97 98 98 99 102 104 105 107 109 110 111 113 114 116 117 118 119 120 122 124 126 128 129 130 130 131 132 133 133 134 133 133 134 134 134 134 134 134 134 133 132 132 133 133 133 133
86 85 85 84 85 85 84 84 84 84 85 85 85 85 84 85 86 87 88 88 90 92 93 94 95 96 96 96 96 96 95 95 95 96 97 97 96 96 97 97 98 98 98 100 101 103 105 107 108 109 110 111 112 113 114 116 117 119 121 122 123 124 125 126 126 127 129 130 131 131 132 133 133 133 134 134 134 133 133 132 131 133 133 133 133
88 87 85 85 84 85 85 84 84 84 85 86 86 86 85 85 86 87 88 89 90 92 93 95 96 98 99 99 99 99 99 98 98 98 98 99 99 98 98 99 99 99 100 100 101 102 103 105 106 107 108 109 110 111 112 113 114 116 117 118 119 120 121 121 121 122 124 125 126 127 127 128 129 129 130 130 130 130 130 129 127 129 130 131 130
89 88 87 85 85 85 85 85 85 85 86 86 87 87 87 87 87 87 88 89 90 92 93 95 97 98 99 100 101 101 102 102 101 101 101 101 101 100 100 100 100 100 101 101 103 104 104 104 104 105 106 107 109 110 111 112 112 113 114 115 116 117 117 117 117 117 118 119 120 120 121 122 123 124 124 124 125 125 125 125 124 124 126 127 126
90 89 87 86 85 85 85 86 87 87 87 87 87 87 88 88 88 88 88 89 90 92 93 94 96 98 99 101 102 103 104 105 105 105 104 104 104 103 103 103 103 103 103 103 104 105 105 105 105 105 105 106 107 108 110 111 112 112 113 113 113 114 115 115 115 115 115 115 116 116 116 117 117 118 119 118 118 119 119 119 119 118 119 121 120
91 90 88 87 86 85 85 85 86 87 88 88 88 88 88 88 89 89 89 89 89 91 92 94 95 96 98 100 102 103 105 106 107 107 108 107 107 107 106 105 105 105 105 105 106 106 107 107 107 107 107 108 108 108 108 109 111 111 111 112 113 114 114 114 115 114 114 114 114 114 114 114 114 115 115 115 114 114 115 115 114 113 114 116 115
92 91 90 89 87 86 85 85 85 86 87 88 88 88 88 88 89 89 89 90 89 90 90 92 94 95 97 98 100 102 104 105 107 108 110 110 110 110 109 108 108 108 108 108 108 108 109 109 108 108 109 110 110 110 110 110 110 110 109 109 110 112 113 114 114 114 113 113 113 113 113 112 113 114 114 114 113 113 113 113 113 112 113 114 113
94 93 92 91 90 88 87 87 86 85 86 87 87 88 88 89 89 89 90 90 91 91 90 91 92 94 96 97 99 100 102 103 105 107 109 111 112 112 112 112 111 111 110 110 110 110 111 111 111 111 111 112 112 112 112 112 112 111 110 109 109 110 111 111 112 112 112 112 112 112 112 112 112 113 114 113 113 113 113 113 114 113 113 114 114
94 94 94 93 92 90 90 90 88 87 87 86 87 87 88 89 90 90 90 91 92 92 92 92 92 93 95 97 98 99 100 102 103 105 107 109 111 113 114 114 114 114 113 113 113 113 113 114 114 113 113 114 114 114 114 114 114 113 112 112 111 111 111 111 111 111 111 111 111 111 112 112 112 112 113 113 113 113 113 113 114 113 113 115 115
93 93 93 93 93 92 91 91 90 90 89 88 88 88 88 89 90 91 91 92 92 93 94 94 94 94 95 96 98 99 100 101 102 103 104 106 108 110 113 115 116 116 116 116 116 116 116 117 117 117 117 116 116 116 116 116 116 115 114 113 113 113 113 112 112 112 112 111 111 110 110 111 112 112 112 112 112 112 112 112 113 113 113 114 115
92 92 93 93 93 92 91 91 91 90 90 90 90 90 90 90 90 91 92 93 93 94 95 95 95 95 96 96 97 98 99 100 101 102 103 104 106 108 110 112 114 116 117 118 118 118 118 119 119 119 120 120 119 119 119 119 118 117 115 114 115 115 115 114 113 114 114 113 113 112 112 112 112 112 111 111 112 111 111 111 111 111 111 112 113
91 91 91 92 92 92 91 92 92 91 91 91 91 91 91 92 92 92 93 93 94 95 95 96 96 96 97 97 98 98 99 100 100 102 103 104 104 106 107 109 112 114 116 118 119 120 120 121 121 121 122 122 122 122 121 122 121 120 118 117 116 117 117 116 115 115 115 115 114 114 114 114 115 114 114 114 113 113 112 112 112 111 111 111 112
89 90 90 90 90 91 91 91 92 92 91 91 91 91 92 92 93 94 94 94 94 95 96 97 96 96 97 97 98 99 100 100 100 101 102 103 104 105 106 107 109 111 113 115 118 120 121 122 122 123 124 124 124 124 124 124 124 123 121 120 119 119 119 118 118 117 116 116 116 116 115 115 116 117 116 116 116 116 115 115 114 113 113 112 113
89 89 89 89 89 90 90 90 91 91 92 92 92 92 92 93 94 94 94 95 95 95 97 98 98 98 97 97 98 99 100 101 101 100 101 102 103 104 105 106 107 108 110 112 114 117 119 121 123 124 125 126 126 126 126 126 125 125 124 123 123 122 122 122 121 120 119 119 118 117 117 117 118 119 118 118 118 117 117 116 116 115 115 115 115
90 90 90 90 89 90 90 91 91 92 92 92 92 92 92 92 93 94 95 95 95 95 96 97 99 99 99 98 98 99 100 101 101 101 101 101 102 103 104 105 106 107 108 109 111 113 115 118 120 122 124 126 127 127 128 128 127 127 126 125 125 125 124 124 124 123 122 122 121 120 119 120 121 121 121 121 120 119 119 118 118 117 117 117 117
90 91 91 90 90 90 90 91 91 92 92 92 92 92 92 92 93 93 94 95 95 96 96 97 98 99 100 100 99 99 100 101 102 102 102 102 102 102 103 104 105 106 106 107 108 110 112 114 116 119 121 123 125 127 128 129 129 129 128 127 127 127 127 127 126 125 124 124 123 123 123 123 124 124 124 123 123 122 122 121 121 120 120 120 120
88 89 90 90 90 90 90 91 91 92 92 92 92 92 92 92 93 93 94 94 95 95 96 96 98 99 99 100 101 100 100 100 102 103 103 103 102 102 103 104 104 105 106 107 107 108 109 111 113 115 117 119 121 123 125 127 128 129 129 128 128 129 129 129 128 127 127 127 126 125 125 126 125 125 125 126 126 125 125 124 124 124 124 123 123
86 86 87 88 88 88 89 89 90 90 91 91 91 91 92 92 93 94 95 95 95 95 96 96 97 98 99 100 100 101 101 101 101 102 104 104 104 103 103 103 104 105 106 107 107 108 108 109 110 112 114 115 117 118 120 123 125 126 127 128 128 129 129 129 129 128 127 128 128 128 128 128 128 127 127 127 128 127 127 127 127 127 127 127 127
85 84 84 85 85 85 86 87 87 88 88 88 89 89 90 91 92 94 95 95 96 96 96 96 97 97 98 98 99 100 101 102 101 101 102 104 105 105 104 104 104 105 105 106 107 108 108 109 109 110 111 113 114 115 116 119 121 123 124 125 125 126 127 128 128 127 127 128 129 130 130 130 130 129 129 130 130 129 129 129 130 130 130 129 129
83 84 83 83 83 82 82 83 83 84 84 85 86 87 88 89 90 91 93 94 95 95 95 96 97 97 97 98 98 99 100 101 102 102 102 102 104 105 105 105 105 105 105 106 107 107 108 109 109 110 111 111 112 113 114 116 118 119 121 122 122 122 123 124 124 125 125 126 128 129 130 131 131 131 131 131 131 131 131 131 132 132 132 131 131
81 82 82 81 80 80 80 80 80 80 80 80 82 83 84 86 87 88 89 91 92 93 94 95 97 97 97 97 98 98 99 100 101 102 102 103 103 104 105 106 106 106 105 105 106 107 107 108 109 109 110 110 111 111 112 114 115 117 118 119 119 119 120 120 121 121 122 123 125 127 128 129 130 131 131 131 131 132 132 132 133 134 134 133 132
78 80 79 79 78 77 76 76 76 76 76 76 77 78 80 82 83 85 86 87 89 91 92 94 96 97 97 97 98 98 99 99 100 101 102 103 104 105 105 106 107 107 107 106 105 105 106 107 108 109 109 109 110 110 111 113 114 115 116 117 117 117 117 118 118 118 119 120 122 124 126 127 127 128 129 130 131 131 131 132 133 134 134 133 132
75 76 77 76 75 74 72 72 72 72 72 72 73 75 77 78 80 81 82 83 85 86 89 91 94 96 96 96 97 97 98 99 99 101 102 104 105 106 106 106 107 107 107 107 106 106 106 106 106 107 108 109 109 110 110 111 112 113 114 115 115 116 116 116 117 117 117 118 120 121 123 123 124 125 127 128 129 129 130 131 131 132 132 132 130
71 72 73 73 72 70 68 68 69 69 69 70 71 74 75 74 75 77 79 80 81 82 84 88 91 94 95 95 95 95 96 97 98 99 101 103 104 106 106 107 107 106 106 105 106 106 106 105 105 105 106 106 108 109 110 110 111 111 112 113 113 113 113 114 115 116 116 117 118 119 120 121 121 122 123 125 126 127 128 129 130 131 130 130 129
68 68 69 69 68 66 64 63 64 65 66 68 70 72 73 71 71 73 75 77 77 78 80 83 87 90 92 92 92 93 93 94 95 97 98 100 102 104 105 106 106 106 106 105 105 105 105 105 105 104 104 104 106 107 108 109 110 110 111 111 111 111 111 111 112 113 114 115 116 117 118 119 119 120 121 121 123 125 126 128 129 129 128 128 127
66 65 66 66 65 64 62 60 60 60 62 64 67 70 71 70 69 70 71 72 73 74 76 79 82 85 88 89 89 89 89 90 92 94 96 98 99 101 102 103 104 105 105 106 105 104 104 104 104 103 103 103 104 105 106 107 108 109 110 110 110 109 109 109 110 111 111 112 113 114 116 117 117 118 118 119 120 122 123 125 126 126 126 125 124
63 62 62 62 62 62 60 58 58 58 59 61 64 66 68 68 69 69 69 69 70 71 73 75 78 80 83 84 85 85 85 86 88 90 92 94 96 97 99 100 101 102 103 104 104 104 104 103 103 103 102 102 102 104 105 106 106 107 108 108 108 108 107 108 109 110 110 110 111 112 113 114 115 115 116 117 118 119 121 122 123 123 123 123 123
63 61 60 59 58 57 56 55 55 55 56 58 61 63 64 66 67 67 67 67 67 68 70 72 74 76 77 79 79 80 81 82 84 86 88 90 92 93 95 96 97 98 100 101 101 102 103 103 102 102 102 101 101 102 103 104 105 105 106 106 106 105 105 106 108 108 108 109 110 111 111 112 113 114 115 116 117 118 119 120 121 121 121 121 121
65 63 62 60 57 55 53 52 52 52 53 55 58 60 62 64 65 65 64 64 64 65 67 69 71 72 73 74 74 75 76 78 80 82 84 86 88 89 91 93 94 95 96 97 98 99 100 101 101 101 101 100 100 101 102 102 103 104 104 104 103 103 103 104 106 106 107 107 108 109 110 110 111 112 114 115 116 117 118 118 119 120 120 120 120
63 63 62 62 60 56 53 51 50 50 52 53 55 58 60 62 63 63 62 62 62 63 64 65 67 68 70 70 70 71 72 74 76 77 79 82 84 85 87 89 90 91 93 94 95 95 96 98 98 99 99 99 99 99 100 101 102 103 103 102 101 101 101 102 104 105 106 106 106 107 108 109 110 111 113 114 114 115 116 117 118 119 119 120 120
57 57 58 59 59 57 54 51 50 49 51 52 54 55 57 58 59 60 60 61 61 61 62 62 63 65 66 67 67 68 69 71 72 74 76 78 80 81 83 84 86 87 88 90 91 92 93 94 95 96 97 97 97 98 98 99 100 101 102 100 99 100 101 102 103 104 105 106 106 107 108 108 109 111 112 113 113 114 115 116 117 118 119 120 121
53 53 52 53 54 54 53 51 49 49 50 51 52 53 54 55 55 56 57 59 59 60 60 61 61 62 63 64 64 65 67 68 70 71 73 75 76 77 79 80 82 83 84 86 87 88 89 90 92 93 94 95 96 96 97 98 99 100 100 99 98 99 100 101 102 103 104 106 107 108 109 110 111 112 113 114 114 114 115 116 117 118 119 120 121
49 50 50 50 50 50 50 49 48 48 48 49 50 51 52 52 53 53 55 56 57 58 58 59 60 60 61 62 63 63 65 66 68 69 70 71 72 73 75 76 78 79 81 82 83 84 85 87 89 90 91 92 93 94 95 95 97 98 98 98 97 98 99 100 100 102 104 106 107 108 110 111 112 113 113 114 115 115 116 117 118 119 119 120 120
46 46 47 47 47 47 47 47 47 47 47 47 48 50 50 51 51 52 52 53 54 55 56 57 57 58 60 60 61 62 63 64 66 67 67 68 69 70 71 73 74 75 77 78 79 80 82 84 85 87 88 89 90 91 92 93 94 95 96 96 96 97 98 98 99 100 102 104 106 108 110 111 112 112 112 113 114 115 115 117 118 119 118 119 119
45 45 45 44 45 45 45 44 44 45 45 45 46 48 48 49 50 50 51 51 52 52 53 54 55 56 57 58 59 60 61 62 63 64 65 66 67 68 69 70 71 73 74 75 76 77 78 80 82 83 85 86 87 88 90 91 92 93 93 94 94 96 97 98 98 99 101 103 106 107 109 110 111 111 111 112 113 113 114 116 117 118 118 118 118
44 44 44 43 43 43 43 43 43 43 43 44 44 45 46 47 48 49 50 50 51 51 51 52 53 54 55 55 56 57 58 60 61 62 63 64 65 66 67 68 69 70 72 72 73 74 75 76 78 80 81 83 84 85 86 87 89 90 91 92 92 93 95 96 97 98 100 102 105 106 107 108 109 110 110 110 111 112 112 114 115 116 116 116 117
43 43 43 42 41 41 42 42 42 41 41 42 42 43 43 44 45 46 47 48 49 49 50 51 51 52 52 53 54 55 56 57 58 60 60 61 62 63 64 65 66 67 69 70 71 72 73 74 75 77 78 79 81 82 83 84 85 86 87 88 89 89 91 92 94 96 98 100 102 103 104 105 106 107 108 108 109 110 110 112 113 114 115 115 116
43 43 43 43 42 41 41 41 40 40 40 41 41 41 41 42 42 43 43 44 45 46 47 48 49 50 51 51 52 53 54 55 56 57 58 59 60 60 61 62 63 64 65 66 67 68 69 71 72 73 75 76 77 77 78 79 80 81 82 83 84 84 85 87 89 92 94 95 97 98 100 101 101 102 104 104 105 106 107 108 110 111 111 112 113
43 42 42 42 42 41 40 40 40 40 40 40 40 40 40 40 40 40 41 41 42 43 44 46 47 48 49 49 50 51 52 53 54 56 56 57 58 58 59 60 61 62 63 64 65 66 67 68 69 70 71 72 73 74 75 75 76 77 78 79 79 80 80 82 84 86 88 89 91 92 94 95 96 96 97 98 99 100 102 103 103 104 105 106 106
44 42 41 41 42 41 41 40 40 40 39 39 40 40 40 40 40 40 39 39 40 40 42 43 44 45 46 47 48 49 50 51 53 54 55 55 56 57 58 58 59 60 61 62 63 64 65 66 67 67 68 69 70 71 72 72 73 74 74 75 76 76 77 78 80 82 83 85 86 87 89 90 91 91 92 92 93 95 96 97 97 98 99 99 99
44 43 42 41 41 41 41 40 40 40 39 39 39 39 40 40 40 40 40 39 39 39 40 41 42 43 43 45 46 47 48 49 50 52 53 54 54 55 56 57 57 58 59 60 61 62 63 64 65 65 66 67 68 69 69 70 70 71 71 72 72 73 74 75 76 78 80 81 82 84 85 86 87 87 88 88 88 90 91 92 92 93 93 93 93
Wind_Direction
284 283 281 280 277 275 273 272 271 270 269 268 266 264 262 260 258 257 256 254 252 251 249 248 247 246 246 245 245 244 243 242 241 241 240 240 240 240 240 240 240 240 240 241 241 241 242 242 243 244 244 244 244 244 244 244 244 244 245 245 245 245 245 246 246 247 248 248 249 249 250 250 251 252 252 253 253 254 254 255 255 255 255 255 255
285 283 281 280 278 276 273 271 270 269 268 268 267 266 265 263 260 258 257 256 254 252 251 250 248 247 246 246 245 245 245 245 244 243 242 241 241 241 241 241 241 241 241 241 241 241 241 242 242 242 243 243 244 244 245 245 245 245 246 246 246 246 246 246 247 248 248 249 250 250 251 251 252 252 252 253 254 254 254 255 255 256 256 256 256
286 284 282 280 278 276 274 272 270 269 268 267 266 266 265 264 263 261 258 257 255 253 252 251 250 249 248 247 246 246 246 246 246 245 245 244 243 242 242 242 242 241 242 241 241 241 241 241 242 242 242 242 243 244 245 245 246 246 246 247 247 247 248 248 248 249 249 250 250 251 252 252 252 253 253 254 254 254 254 255 255 256 256 256 257
287 285 284 282 280 278 275 273 271 269 268 267 266 265 264 264 263 262 260 259 258 256 254 253 251 250 249 249 248 247 247 246 246 246 246 246 245 244 244 244 243 242 242 242 242 242 242 242 242 243 243 243 243 244 244 245 246 246 247 247 248 248 249 249 250 250 250 251 252 252 252 253 253 254 254 254 254 254 255 255 255 256 256 256 257
289 287 285 284 282 280 278 276 273 271 269 268 266 265 264 263 262 261 260 259 259 258 257 255 253 251 250 250 249 248 248 247 247 247 246 246 246 245 245 244 244 243 243 244 244 244 244 244 244 244 244 245 245 245 245 245 246 246 246 247 247 248 248 249 249 250 251 251 252 252 252 253 253 253 254 254 254 255 255 255 256 256 257 257 258
289 288 287 285 284 282 280 278 276 274 272 269 267 265 264 262 261 260 260 259 258 258 258 257 256 254 252 251 250 248 248 248 248 248 247 247 246 246 246 246 246 245 245 245 245 245 245 245 245 245 246 246 246 246 246 246 246 246 246 246 246 247 247 248 249 249 250 250 251 251 252 252 252 252 253 254 254 254 255 255 256 256 257 257 258
288 288 287 286 285 283 282 280 278 276 274 271 269 266 264 263 261 260 259 259 258 258 257 257 256 256 254 253 252 250 249 248 248 248 248 248 248 247 247 247 248 247 247 247 246 246 246 246 246 246 246 247 247 247 246 247 247 247 247 247 247 247 247 248 248 249 249 250 250 251 251 251 252 252 253 254 254 255 255 255 256 256 257 257 257
285 285 285 285 285 284 283 281 280 278 276 273 271 268 266 263 262 260 259 258 257 257 257 256 256 255 255 254 254 253 251 249 249 248 248 248 248 249 248 248 248 248 248 248 248 248 247 247 247 247 247 248 248 248 248 248 248 248 248 248 248 248 248 248 249 249 250 250 250 251 251 252 252 253 253 254 255 255 255 256 256 257 257 257 258
283 282 282 282 282 282 281 281 279 278 276 274 272 270 267 265 262 261 259 258 256 256 256 255 255 255 254 254 254 253 253 252 251 250 249 249 249 249 249 249 249 249 249 249 249 249 248 248 248 248 248 248 249 249 249 249 249 249 250 250 249 249 249 249 250 250 251 251 251 251 252 252 253 253 254 255 255 255 256 256 256 257 257 258 258
282 281 280 280 279 279 279 278 277 276 275 274 272 270 269 267 264 261 260 258 257 255 254 254 254 254 254 253 253 252 252 252 252 251 251 250 249 249 249 249 249 249 249 249 249 249 249 249 249 249 249 249 249 249 250 250 251 251 251 251 251 251 250 251 251 251 251 252 252 252 253 253 254 254 254 255 255 255 256 257 257 257 258 258 259
282 281 280 279 278 277 276 276 275 274 273 272 270 269 268 266 265 263 261 259 258 256 255 254 253 253 252 252 252 251 251 251 251 251 251 251 250 249 249 249 249 249 249 249 249 249 249 249 249 249 249 249 249 250 250 250 251 251 251 251 252 252 252 252 252 252 252 253 253 253 253 254 254 254 255 255 256 256 256 257 258 258 258 259 259
283 282 281 279 278 277 276 275 274 273 272 271 270 268 266 265 264 263 262 260 258 257 256 255 253 252 251 251 251 251 250 250 250 250 250 250 250 250 250 250 250 250 249 249 249 249 249 249 249 249 249 250 250 250 250 250 250 251 251 251 251 252 252 252 252 253 253 253 253 253 254 254 254 255 255 256 256 256 257 257 258 259 259 259 259
284 283 281 280 278 277 276 275 273 272 271 270 269 268 267 265 263 262 261 260 259 258 257 256 255 254 253 251 251 250 250 250 249 249 249 249 249 249 249 249 250 250 250 250 250 249 249 249 249 249 249 250 250 250 250 250 250 251 251 251 252 252 252 252 252 253 253 253 254 254 254 255 255 255 256 256 256 257 257 257 257 258 259 259 259
283 282 280 279 278 276 275 274 272 271 270 269 269 268 268 266 264 263 261 260 259 258 257 256 255 255 254 253 252 251 250 250 249 249 249 249 249 248 248 249 249 249 250 250 250 250 250 250 250 250 250 250 250 250 250 250 251 251 252 252 252 252 253 252 252 252 253 253 254 254 254 255 255 255 256 256 256 257 257 257 257 257 258 259 259
281 280 279 278 276 275 273 272 271 270 269 268 267 267 267 266 266 264 263 261 260 259 258 257 256 255 254 254 253 252 251 250 250 249 249 249 249 249 248 248 248 248 249 249 250 250 250 250 250 251 250 250 250 250 250 250 250 250 251 252 252 252 253 253 253 252 253 253 253 254 254 254 255 255 256 256 256 257 257 257 257 257 258 258 258
281 280 279 277 275 274 272 271 269 269 268 267 266 266 265 265 265 265 264 263 262 261 260 259 258 257 256 255 254 253 252 251 251 250 250 249 249 249 248 248 248 248 248 248 249 249 250 250 250 251 251 251 251 251 250 251 251 250 251 251 252 253 253 253 253 253 253 253 253 253 254 254 255 255 256 256 256 256 257 257 257 257 257 258 258
282 281 280 278 277 275 273 271 269 268 266 266 265 265 264 264 263 263 263 263 262 261 261 260 260 259 257 256 255 254 253 252 252 251 251 250 250 249 249 248 248 248 248 248 248 249 249 250 250 250 250 251 251 251 251 251 251 251 251 251 252 253 253 254 254 254 254 254 254 254 254 255 255 255 256 256 256 256 256 257 257 257 257 257 258
282 281 280 279 278 277 275 273 271 269 267 265 264 263 263 263 262 262 262 262 262 262 261 260 259 259 258 257 256 255 254 253 253 252 251 251 251 251 250 249 249 249 249 249 249 249 249 250 250 250 250 251 251 251 251 251 251 251 251 251 252 252 253 254 254 254 255 255 255 255 255 255 256 256 256 257 257 257 257 257 257 257 257 258 258
281 280 280 279 278 277 276 274 273 271 269 267 265 263 262 261 261 261 260 260 260 261 261 260 259 258 258 258 257 256 255 254 254 253 252 252 251 251 251 251 251 250 249 249 249 249 250 250 250 250 250 251 251 251 251 251 251 251 251 251 251 252 252 253 254 254 254 254 255 255 256 256 256 256 256 257 257 257 257 258 258 258 258 258 259
280 279 278 278 277 276 275 274 273 272 270 269 267 265 263 261 260 259 259 259 258 259 259 260 259 258 258 257 257 257 256 256 255 254 253 253 252 251 251 251 251 251 251 250 250 250 250 250 251 251 251 251 251 252 252 252 252 251 251 252 252 252 252 252 253 254 254 254 254 254 255 255 255 255 256 256 256 256 257 257 257 258 258 258 258
279 278 277 276 276 275 274 273 272 271 270 269 268 266 265 263 261 259 258 258 257 257 257 258 258 258 258 257 257 257 256 256 256 255 254 253 253 252 252 251 251 251 251 251 251 251 250 250 250 251 251 251 252 252 252 252 252 252 252 251 252 252 252 252 252 253 253 254 254 254 254 255 255 255 255 255 256 256 256 256 256 257 257 257 258
278 277 276 275 275 274 273 272 271 270 269 267 266 265 264 263 262 261 259 258 257 256 256 256 256 257 258 258 258 257 256 256 255 255 255 255 254 253 252 252 251 251 251 251 251 251 251 251 251 251 251 252 252 252 252 252 253 253 252 252 252 252 253 252 252 252 253 253 254 254 254 255 255 255 255 255 255 255 256 256 256 256 257 257 258
278 276 275 274 273 272 271 270 269 268 267 266 265 264 263 263 262 261 260 259 258 257 257 256 255 255 256 257 257 258 257 257 256 255 255 255 254 254 253 252 252 251 251 251 251 251 252 252 252 252 252 252 253 253 253 253 253 253 253 253 253 253 253 253 253 253 253 253 253 254 254 255 255 256 255 255 255 256 256 256 256 256 257 257 258
278 276 275 274 272 271 270 269 268 267 266 265 264 263 262 262 261 260 260 259 258 257 257 257 257 256 255 255 256 257 257 257 257 256 255 255 254 254 254 254 253 252 252 251 251 251 251 251 252 252 252 252 253 253 254 254 254 254 254 254 254 253 253 253 253 253 253 253 253 253 254 255 255 256 256 256 256 256 256 257 257 257 257 257 257
278 276 275 273 272 271 269 268 267 266 265 264 263 262 261 260 260 260 259 259 258 257 257 257 257 256 256 255 254 255 256 257 257 256 256 256 255 255 254 254 254 253 253 252 252 252 251 251 251 251 252 252 253 253 254 254 255 255 255 255 255 255 255 254 254 254 254 253 253 254 254 254 255 255 256 256 256 256 257 257 257 257 257 257 257
278 276 275 273 272 270 269 268 267 266 265 264 263 262 261 260 260 259 259 258 258 257 257 256 256 256 256 256 255 254 254 255 256 257 256 255 255 255 255 255 255 254 254 253 253 252 252 252 251 251 251 252 252 253 253 254 254 255 255 255 255 255 255 255 255 255 255 255 255 254 254 254 254 255 256 256 257 257 257 257 257 257 257 257 257
277 276 275 274 273 272 270 269 268 266 265 264 263 263 262 261 260 259 259 258 257 257 256 255 255 255 255 256 255 254 253 253 254 255 256 256 255 255 254 255 255 255 255 254 254 253 253 252 252 252 252 252 252 252 252 253 254 254 255 255 255 255 255 255 256 256 256 256 256 256 256 256 255 256 256 256 257 257 257 257 257 257 257 257 257
279 277 276 275 274 273 272 271 269 268 267 266 265 264 263 262 261 260 259 258 258 257 256 255 255 255 254 254 255 255 254 253 252 253 254 255 255 255 254 254 254 254 254 254 254 254 254 253 253 252 252 252 252 252 252 252 253 253 254 254 254 255 255 255 255 255 255 256 256 257 257 257 257 257 257 257 258 258 258 258 258 258 258 258 258
281 280 278 277 275 274 273 272 270 269 268 267 266 265 263 262 261 260 260 259 259 258 257 256 255 255 254 254 254 254 255 255 254 253 252 253 254 255 254 254 253 253 253 253 253 254 254 254 254 254 253 253 252 252 252 253 253 253 253 254 254 254 255 255 255 255 255 255 256 256 257 257 258 258 258 258 258 259 259 259 259 259 259 259 259
283 282 281 280 278 277 276 274 272 271 270 268 267 266 264 263 262 261 261 260 260 259 258 258 257 256 255 254 254 254 254 255 255 254 254 253 253 253 254 254 254 253 252 252 253 253 253 253 254 254 254 254 254 253 253 253 253 253 253 254 254 254 254 255 255 255 255 255 256 256 256 257 257 257 258 258 258 259 259 260 260 260 260 260 260
285 284 283 282 281 280 278 277 275 274 272 270 269 267 266 265 263 262 261 260 260 259 259 258 258 257 256 256 255 254 254 254 254 255 255 254 254 253 253 254 254 254 253 252 252 252 252 253 253 253 253 254 254 254 254 254 254 254 254 254 254 254 254 254 255 255 255 255 255 256 256 256 257 257 257 258 258 258 259 259 260 260 261 261 261
284 284 283 283 282 281 280 279 278 277 276 274 272 270 267 265 263 262 260 259 259 259 258 258 258 257 257 256 255 255 254 253 253 254 254 255 255 254 254 254 254 254 255 254 253 252 252 252 252 252 253 253 253 253 253 254 254 254 254 254 254 255 254 254 254 254 255 255 255 255 256 256 256 257 257 258 258 258 258 259 259 260 260 260 261
286 285 285 284 283 283 282 282 281 279 277 275 273 270 267 265 264 263 261 259 258 257 257 257 257 257 257 256 256 255 255 254 254 254 254 254 255 255 255 255 255 254 255 255 255 254 253 252 252 251 252 252 253 253 253 253 253 253 254 254 254 254 255 255 255 255 255 255 255 255 255 256 256 256 257 257 258 258 258 259 259 259 260 260 261
288 287 286 286 286 285 284 282 280 279 277 275 272 270 268 267 266 265 263 262 260 257 256 256 256 257 257 256 256 256 255 255 255 254 254 254 254 255 256 256 256 256 256 255 255 255 255 255 254 252 252 251 252 252 252 253 253 253 253 253 253 253 253 254 254 255 255 255 255 255 256 256 256 256 256 257 257 258 258 258 259 259 260 260 261
290 289 289 288 288 286 284 282 279 278 277 275 273 272 271 269 267 266 265 264 262 260 258 257 256 256 256 256 256 256 255 255 255 255 255 254 254 255 255 256 257 257 257 257 256 256 256 256 256 255 254 253 252 252 252 252 252 253 253 253 253 253 253 253 253 254 254 254 254 255 255 256 256 256 256 256 256 257 257 258 258 259 260 260 261
292 291 290 290 289 287 285 282 280 277 275 274 273 272 272 271 269 267 265 264 264 262 261 259 258 257 257 257 256 256 255 255 255 255 255 255 255 255 255 255 256 257 257 257 257 257 257 256 256 256 255 255 254 253 253 253 253 253 253 253 253 253 253 253 253 253 253 253 254 254 255 255 255 256 256 256 256 256 257 257 258 258 259 260 260
292 291 289 289 288 288 287 285 283 280 277 275 273 272 272 271 270 268 267 266 264 263 261 260 259 258 258 258 258 258 257 256 255 254 254 254 254 254 255 255 255 255 256 257 257 257 257 257 257 257 256 256 255 255 255 254 254 254 253 253 253 253 253 253 253 253 253 253 254 254 254 255 255 255 256 256 256 256 257 257 257 258 259 259 260
294 293 291 289 288 287 286 285 284 281 279 276 275 274 273 272 271 269 268 266 265 263 262 261 261 260 260 259 260 259 259 257 256 255 255 255 255 255 255 255 255 255 255 255 256 256 257 257 257 257 257 256 256 256 256 256 255 255 255 254 254 254 254 253 253 253 253 253 253 253 253 254 254 255 255 256 256 256 257 257 258 258 258 259 259
297 296 295 293 291 289 287 285 283 280 278 275 274 274 273 273 272 271 270 268 266 264 263 262 262 261 261 260 260 260 259 258 257 257 256 256 256 255 255 255 255 255 255 255 255 255 256 256 257 257 257 257 257 256 256 256 256 256 256 255 255 255 255 255 255 254 254 253 253 253 253 253 254 254 254 255 255 256 256 257 257 258 258 258 259
295 296 295 295 293 292 290 287 284 281 278 275 273 272 272 272 273 273 273 271 269 267 265 264 263 262 261 261 260 259 259 258 258 257 257 256 256 255 255 255 255 255 255 255 255 255 255 256 256 256 257 257 257 257 257 257 257 257 256 256 256 256 256 256 256 256 256 255 255 255 254 254 254 254 254 254 254 255 255 256 256 257 257 258 258
293 294 294 294 293 293 292 289 287 283 280 277 274 273 273 273 273 273 273 272 271 270 268 266 265 263 263 262 261 260 259 259 258 257 256 256 256 256 255 255 255 255 255 255 255 255 255 255 255 256 256 256 256 256 256 256 256 257 257 257 257 257 256 256 256 257 257 257 257 257 257 257 256 256 256 256 256 256 256 256 257 257 257 257 258
295 294 293 293 292 292 292 290 288 285 282 280 277 276 275 274 273 273 272 272 271 270 270 268 267 266 265 264 263 262 261 260 259 258 257 257 257 256 256 256 256 255 255 255 255 255 255 255 255 255 255 255 255 255 255 255 255 256 256 256 256 256 256 256 256 257 257 257 257 257 258 257 257 257 257 257 258 258 258 258 258 258 258 258 259
298 297 296 294 293 292 291 290 288 286 283 281 280 278 277 275 274 273 272 272 271 270 270 269 268 267 266 265 263 262 261 261 260 259 259 259 258 257 257 256 256 256 255 255 255 255 254 254 254 254 255 255 255 255 254 254 254 255 255 256 256 256 256 255 255 256 256 256 257 257 257 257 257 257 257 257 258 258 258 258 259 259 259 259 260
301 299 297 296 295 293 292 291 289 287 285 283 281 280 279 278 276 275 274 272 271 270 270 269 268 267 266 265 264 263 263 262 262 261 261 260 260 259 258 258 257 256 256 255 255 254 254 254 254 254 254 255 255 255 255 255 255 255 255 255 255 255 255 255 255 255 255 255 256 256 256 256 257 257 257 257 257 258 258 258 259 259 259 260 260
304 303 301 299 297 296 294 293 291 289 287 285 283 281 280 279 278 277 275 274 272 271 270 269 268 267 266 266 265 265 264 263 263 262 261 261 260 260 259 259 258 258 257 257 256 255 255 254 254 254 254 254 254 254 254 255 255 255 255 255 255 254 255 255 254 254 254 254 254 254 255 255 256 256 256 257 257 257 257 258 258 259 259 260 260
307 306 304 303 301 299 298 296 294 291 289 286 284 283 281 280 279 278 277 276 275 273 272 270 269 268 267 266 266 265 265 264 264 263 262 261 261 260 259 259 258 258 258 258 257 257 256 256 256 255 255 255 255 255 255 255 255 255 255 255 255 254 254 254 254 254 253 253 253 254 254 255 255 256 256 256 256 256 257 257 258 258 259 259 260
310 309 307 306 304 302 300 298 296 294 291 288 286 284 282 281 280 279 278 277 276 275 274 273 272 270 269 268 267 266 266 265 265 264 263 263 262 261 260 260 259 258 258 258 258 257 257 257 256 256 256 256 256 256 256 256 256 256 256 256 255 255 255 254 254 254 254 253 254 254 254 254 255 255 256 256 256 256 256 257 257 257 258 259 259
313 312 310 309 307 305 303 301 299 297 294 292 289 286 283 281 280 279 279 278 278 277 276 275 274 273 272 270 269 268 267 266 266 265 265 264 263 263 262 261 261 260 260 259 259 258 257 257 257 256 256 256 256 256 256 256 256 256 256 256 255 255 254 254 254 254 254 254 254 254 254 254 254 254 255 255 255 255 255 255 256 256 256 257 258
315 314 312 311 310 308 306 304 302 300 298 295 293 290 288 285 283 281 279 278 278 277 277 276 275 274 273 272 271 270 269 268 267 267 266 265 265 264 263 263 262 262 261 261 260 260 259 258 258 257 257 257 257 257 257 256 256 256 256 256 256 255 255 254 254 254 254 254 254 254 254 254 254 254 254 254 254 254 254 254 255 255 255 256 257
316 315 313 312 311 310 309 307 305 303 301 298 296 294 292 290 288 285 283 281 279 278 277 276 275 274 273 272 272 271 270 269 268 268 267 267 266 265 264 264 263 262 262 261 261 260 260 260 259 259 259 258 258 258 258 257 257 257 257 256 256 256 256 255 255 255 255 255 255 255 255 255 255 255 254 254 254 254 254 254 255 255 255 256 256
317 315 314 313 312 311 310 309 307 305 303 301 298 296 295 293 291 289 287 285 282 280 278 277 275 274 274 273 272 271 270 269 269 268 267 267 266 265 265 264 263 263 262 262 261 261 260 260 260 260 259 259 259 258 258 258 258 257 257 257 256 256 256 256 256 256 256 256 256 256 256 256 256 256 256 255 255 255 255 255 255 255 256 256 256